Flag for Cambodia Weather past 2 weeks in Battambang, Cambodia

Now
93 °F

Passing clouds.


Feels Like: 103 °F
Forecast: 76 / 99 °F
Wind: 3 mph from North

Location: Siemreap

Current Time: Apr 2, 2015 at 11:37:00 AM

Latest Report: Apr 2, 2015 at 11:00 AM


Visibility: N/A

Pressure: 29.80 "Hg

Humidity: 53%

Dew point: 73 °F

Location of BattambangLocation

Historic Weather in Battambang — Graph

°F

Battambang temperature yesterday

Maximum temperature yesterday: 99 °F (at 3:00 PM)
Minimum temperature yesterday: 81 °F (at 1:00 AM)
Average temperature yesterday: 89 °F

Past Weeks' High & Low Weather Summary

 TemperatureHumidityPressure
High99 °F (Mar 31, 2:30 PM)100% (Mar 19, 7:00 AM)29.98 "Hg (Mar 19, 7:00 AM)
Low77 °F (Mar 19, 7:00 AM)34% (Mar 26, 3:30 PM)29.65 "Hg (Apr 1, 4:00 PM)
Average87 °F63%29.82 "Hg
* Reported Mar 18 10:00 AM — Apr 2 10:30 AM, Battambang, Weather by CustomWeather, © 2015

Note: Actual official high and low records may vary slightly from our data, if they occured in-between our weather recording intervals... More about our weather records

Advertising

Battambang weather history for previous 24 hours

 ConditionsComfort  
Time TempWeatherWind HumidityBarometerVisibility
10:30 AM
Thu, Apr 2
91 °FPassing clouds.5 mph56%29.80 "HgN/A
9:30 AM88 °FPassing clouds.5 mph66%29.83 "HgN/A
9:00 AM86 °FPassing clouds.6 mph70%29.83 "HgN/A
8:30 AM84 °FPassing clouds.5 mph74%29.80 "HgN/A
8:00 AM84 °FPassing clouds.5 mph79%29.80 "HgN/A
7:30 AM82 °FClear.1 mph84%29.80 "Hg6 mi
7:00 AM79 °FClear.1 mph94%29.77 "Hg6 mi
1:00 AM82 °FClear.5 mph79%29.77 "Hg6 mi
12:30 AM82 °FClear.2 mph79%29.77 "Hg6 mi
12:00 AM82 °FClear.5 mph79%29.77 "Hg6 mi
11:30 PM
Wed, Apr 1
82 °FClear.3 mph79%29.77 "Hg6 mi
11:00 PM82 °FClear.No wind79%29.77 "Hg6 mi
10:30 PM82 °FClear.5 mph79%29.77 "Hg6 mi
10:00 PM82 °FClear.3 mph79%29.77 "Hg6 mi
9:30 PM84 °FPassing clouds.No wind70%29.77 "Hg6 mi
9:00 PM84 °FPassing clouds.No wind70%29.74 "Hg6 mi
8:30 PM84 °FPassing clouds.3 mph70%29.77 "Hg6 mi
8:00 PM86 °FPassing clouds.3 mph62%29.74 "Hg6 mi
7:30 PM86 °FPassing clouds.5 mph62%29.74 "Hg6 mi
7:00 PM86 °FPassing clouds.7 mph62%29.71 "Hg6 mi
6:30 PM88 °FPassing clouds.7 mph59%29.71 "Hg6 mi
6:00 PM90 °FScattered clouds.10 mph67%29.68 "HgN/A
5:30 PM93 °FScattered clouds.6 mph49%29.68 "HgN/A
5:00 PM95 °FScattered clouds.7 mph47%29.68 "HgN/A
4:30 PM95 °FScattered clouds.6 mph44%29.65 "HgN/A
4:00 PM97 °FPassing clouds.5 mph39%29.65 "HgN/A
3:30 PM99 °FPassing clouds.5 mph37%29.68 "HgN/A
3:00 PM99 °FPassing clouds.5 mph39%29.68 "HgN/A
2:30 PM97 °FScattered clouds.6 mph42%29.71 "HgN/A
2:00 PM97 °FScattered clouds.3 mph42%29.71 "HgN/A
1:30 PM97 °FScattered clouds.7 mph42%29.74 "HgN/A
1:00 PM95 °FScattered clouds.3 mph47%29.77 "HgN/A
12:30 PM95 °FScattered clouds.6 mph47%29.80 "HgN/A
12:00 PM95 °FScattered clouds.6 mph47%29.80 "HgN/A
11:30 AM91 °FScattered clouds.5 mph56%29.83 "HgN/A
11:00 AM91 °FScattered clouds.5 mph56%29.86 "HgN/A
Weather by CustomWeather, © 2015

See weather overviewHow to use our weather pages